Date,TemperatureHighF,TemperatureAvgF,TemperatureLowF,DewpointHighF,DewpointAvgF,DewpointLowF,HumidityHigh,HumidityAvg,HumidityLow,PressureMaxIn,PressureMinIn,WindSpeedMaxMPH,WindSpeedAvgMPH,GustSpeedMaxMPH,PrecipitationSumIn
2013-1-15,80.0,73.9,64.0,64.0,58.9,57.0,78,60,47,0.00,40.00,10,6,17,0.00
2013-1-16,80.0,69.3,59.0,64.0,58.4,53.0,84,69,49,0.00,40.00,8,5,15,0.00
2013-1-17,80.0,70.1,62.0,64.0,59.7,54.0,93,71,45,0.00,40.00,9,4,20,0.00
2013-1-18,79.0,70.0,62.0,64.0,59.8,56.0,92,71,49,0.00,40.00,12,6,19,0.00
2013-1-19,76.0,68.6,58.0,61.0,54.9,51.0,90,63,44,0.00,40.00,14,7,24,0.00
2013-1-20,76.0,69.2,63.0,59.0,55.8,53.0,80,63,46,0.00,40.00,11,7,19,0.00
2013-1-21,76.0,71.7,66.0,62.0,59.4,56.0,71,66,55,0.00,40.00,11,7,22,0.00
2013-1-22,78.0,72.4,67.0,66.0,60.9,58.0,86,68,55,0.00,40.00,12,6,20,0.00
2013-1-23,79.0,72.3,69.0,66.0,62.7,59.0,88,72,61,0.00,40.00,12,6,17,0.00
2013-1-24,76.0,69.6,67.0,69.0,66.3,64.0,97,89,71,0.00,40.00,7,4,12,0.29
2013-1-25,80.0,71.3,62.0,68.0,64.2,60.0,97,79,57,0.00,40.00,6,3,13,0.03
2013-1-26,78.0,71.3,64.0,69.0,64.5,61.0,91,80,61,0.00,40.00,13,5,20,0.02
2013-1-27,78.0,73.3,64.0,69.0,65.7,61.0,92,78,68,0.00,40.00,13,7,21,0.88
2013-1-28,74.0,69.1,64.0,67.0,64.6,62.0,96,86,71,0.00,40.00,8,4,13,1.41
2013-1-29,80.0,70.8,64.0,67.0,64.5,61.0,96,81,61,0.00,40.00,7,4,14,0.02
2013-1-30,81.0,71.2,63.0,68.0,63.8,61.0,96,79,57,0.00,40.00,9,4,15,0.01
2013-1-31,79.0,73.3,65.0,66.0,63.2,60.0,86,72,56,0.00,40.00,10,7,17,0.00
2013-2-1,78.0,73.1,69.0,63.0,59.4,53.0,79,63,44,0.00,40.00,13,8,21,0.00
2013-2-2,78.0,73.1,64.0,64.0,61.0,59.0,86,66,55,0.00,40.00,13,7,19,0.00
2013-2-3,77.0,69.1,60.0,63.0,58.7,57.0,95,71,50,0.00,40.00,11,6,19,0.00
2013-2-4,75.0,72.4,71.0,65.0,59.8,56.0,72,65,58,0.00,40.00,12,9,23,0.00
2013-2-5,77.0,72.0,67.0,64.0,60.2,58.0,83,67,53,0.00,40.00,12,8,20,0.01
2013-2-6,77.0,71.8,67.0,66.0,62.8,60.0,81,74,63,0.00,40.00,11,7,21,0.00
2013-2-7,80.0,73.2,68.0,70.0,64.4,62.0,82,75,61,0.00,40.00,14,6,20,0.00
2013-2-8,80.0,72.9,65.0,66.0,62.9,61.0,89,72,55,0.00,40.00,8,4,12,0.00
2013-2-9,78.0,71.4,63.0,65.0,61.4,60.0,93,72,54,0.00,40.00,10,6,17,0.00
2013-2-10,77.0,73.3,69.0,68.0,63.2,60.0,83,71,63,0.00,40.00,14,8,21,0.01
2013-2-11,76.0,72.0,70.0,67.0,63.2,62.0,85,74,68,0.00,40.00,11,8,21,0.01
2013-2-12,74.0,70.3,67.0,65.0,60.0,56.0,84,70,57,0.00,40.00,11,7,23,0.00
2013-2-13,75.0,70.5,64.0,60.0,57.4,53.0,79,63,53,0.00,40.00,9,6,19,0.00
2013-2-14,76.0,70.9,65.0,61.0,58.4,55.0,74,65,55,0.00,40.00,11,6,19,0.00
2013-2-15,79.0,73.6,70.0,65.0,61.0,58.0,75,65,55,0.00,40.00,13,9,19,0.00
2013-2-16,77.0,73.2,70.0,65.0,60.7,57.0,80,65,54,0.00,40.00,16,12,29,0.00
2013-2-17,76.0,73.1,70.0,61.0,59.0,57.0,71,61,54,0.00,40.00,18,14,33,0.00
2013-2-18,76.0,72.6,69.0,62.0,58.7,56.0,78,62,53,0.00,40.00,17,12,30,0.00
2013-2-19,74.0,71.7,69.0,64.0,59.9,56.0,80,67,57,0.00,40.00,16,11,27,0.02
2013-2-20,76.0,72.3,68.0,63.0,61.5,59.0,81,69,59,0.00,40.00,16,9,24,0.02
2013-2-21,75.0,71.2,68.0,67.0,63.7,59.0,91,78,65,0.00,40.00,12,7,21,0.35
2013-2-22,75.0,71.1,68.0,67.0,64.5,61.0,91,80,68,0.00,40.00,12,8,22,0.60
2013-2-23,76.0,72.4,69.0,64.0,62.6,61.0,82,72,63,0.00,40.00,13,9,22,0.01
2013-2-24,76.0,72.8,70.0,64.0,61.5,60.0,82,68,59,0.00,40.00,13,9,22,0.00
2013-2-25,76.0,72.6,69.0,64.0,60.9,58.0,81,67,59,0.00,40.00,15,9,24,0.00
2013-2-26,76.0,72.3,68.0,66.0,61.4,58.0,89,69,56,0.00,40.00,13,9,25,0.01
2013-2-27,77.0,73.3,71.0,63.0,59.0,53.0,74,62,45,0.00,40.00,15,10,24,0.01
2013-2-28,77.0,73.0,70.0,62.0,58.6,54.0,70,61,47,0.00,40.00,15,10,23,0.00
2013-3-1,76.0,72.5,71.0,60.0,57.8,55.0,66,60,55,0.00,40.00,17,12,26,0.00
2013-3-2,76.0,72.6,70.0,60.0,57.5,53.0,69,60,47,0.00,40.00,16,11,26,0.00
2013-3-3,76.0,72.5,70.0,59.0,56.0,53.0,66,57,47,0.00,40.00,13,9,24,0.00
2013-3-4,76.0,71.9,68.0,61.0,56.8,55.0,68,59,52,0.00,40.00,13,9,22,0.00
2013-3-5,78.0,70.7,61.0,62.0,57.0,53.0,79,63,47,0.00,40.00,11,6,19,0.00
2013-3-6,78.0,72.0,65.0,64.0,61.0,59.0,88,69,54,0.00,40.00,12,6,16,0.00
2013-3-7,81.0,70.2,60.0,63.0,60.6,57.0,93,74,49,0.00,40.00,8,4,16,0.00
2013-3-8,82.0,71.5,61.0,65.0,60.3,49.0,87,70,32,0.00,40.00,8,4,18,0.00
2013-3-9,81.0,73.8,66.0,68.0,65.1,62.0,94,75,61,0.00,40.00,10,5,22,2.38
2013-3-10,73.0,67.4,64.0,71.0,66.1,63.0,98,95,91,0.00,40.00,5,3,12,4.10
2013-3-11,79.0,70.2,62.0,65.0,61.7,59.0,97,76,53,0.00,40.00,8,4,13,0.02
2013-3-12,78.0,71.3,66.0,64.0,60.5,54.0,81,69,52,0.00,40.00,10,5,18,0.00
2013-3-13,76.0,69.6,61.0,64.0,59.4,57.0,94,71,52,0.00,40.00,9,5,19,0.00
2013-3-14,78.0,70.3,64.0,63.0,60.3,55.0,90,72,51,0.00,40.00,8,4,14,0.00
2013-3-15,77.0,69.6,61.0,62.0,59.3,56.0,93,71,51,0.00,40.00,9,5,17,0.00
2013-3-16,75.0,69.4,62.0,62.0,55.8,50.0,87,64,44,0.00,40.00,13,6,24,0.00
2013-3-17,77.0,68.9,62.0,61.0,56.6,49.0,83,67,40,0.00,40.00,8,6,19,0.00
2013-3-18,76.0,67.7,60.0,59.0,56.7,53.0,86,69,47,0.00,40.00,7,4,13,0.00
2013-3-19,77.0,69.1,60.0,65.0,60.7,57.0,94,76,55,0.00,40.00,10,4,16,0.00
2013-3-20,80.0,71.9,63.0,67.0,64.2,60.0,95,78,60,0.00,40.00,8,4,14,0.00
2013-3-21,80.0,74.3,68.0,69.0,66.2,62.0,88,76,66,0.00,40.00,9,4,17,0.00
2013-3-22,80.0,75.1,70.0,69.0,66.7,63.0,85,75,64,0.00,40.00,9,4,14,0.00
2013-3-23,77.0,72.6,70.0,66.0,63.7,62.0,84,74,63,0.00,40.00,10,8,18,0.00
2013-3-24,72.0,70.4,67.0,68.0,65.2,62.0,95,84,74,0.00,40.00,7,5,12,0.31
2013-3-25,80.0,71.1,63.0,70.0,65.8,62.0,97,85,62,0.00,40.00,7,3,14,0.06
2013-3-26,81.0,72.8,66.0,68.0,65.6,64.0,96,79,59,0.00,40.00,7,4,12,0.04
2013-3-27,75.0,71.5,69.0,70.0,65.8,63.0,89,82,77,0.00,40.00,8,5,15,0.13
2013-3-28,78.0,75.3,70.0,64.0,62.8,61.0,79,66,56,0.00,40.00,12,8,21,0.01
2013-3-29,77.0,72.2,67.0,67.0,63.8,61.0,88,75,65,0.00,40.00,13,7,19,0.00
2013-3-30,80.0,72.0,66.0,68.0,60.8,-99.9,90,72,52,0.00,40.00,11,6,20,0.00
2013-3-31,76.0,68.4,58.0,60.0,53.8,49.0,85,61,42,0.00,40.00,12,7,22,0.00
2013-4-1,73.0,66.9,59.0,60.0,55.0,51.0,87,67,52,0.00,40.00,11,6,22,0.00
2013-4-2,76.0,68.3,60.0,59.0,55.1,52.0,83,64,43,0.00,40.00,9,5,15,0.00
2013-4-3,77.0,68.7,59.0,61.0,58.1,55.0,93,70,52,0.00,40.00,9,4,17,0.00
2013-4-4,81.0,71.7,61.0,64.0,61.2,58.0,90,71,47,0.00,40.00,6,4,12,0.00
2013-4-5,80.0,71.5,62.0,66.0,62.5,60.0,95,75,55,0.00,40.00,8,4,15,0.00
2013-4-6,81.0,74.5,67.0,70.0,66.5,63.0,94,77,64,0.00,40.00,11,5,17,0.00
2013-4-7,82.0,74.5,67.0,71.0,66.1,64.0,94,77,58,0.00,40.00,12,5,18,0.00
2013-4-8,81.0,74.6,67.0,69.0,64.3,62.0,91,71,54,0.00,40.00,9,5,15,0.00
2013-4-9,81.0,74.0,67.0,71.0,64.7,62.0,89,73,59,0.00,40.00,12,5,16,0.16
2013-4-10,81.0,75.0,67.0,68.0,64.9,62.0,91,72,57,0.00,40.00,13,6,20,0.14
2013-4-11,84.0,76.0,68.0,69.0,66.2,62.0,91,73,49,0.00,40.00,10,5,17,0.00
2013-4-12,81.0,75.6,72.0,70.0,67.7,65.0,90,77,62,0.00,40.00,11,5,18,0.00
2013-4-13,79.0,74.8,71.0,71.0,68.8,67.0,92,82,69,0.00,40.00,9,5,16,0.00
2013-4-14,81.0,73.4,68.0,73.0,68.8,64.0,97,86,69,0.00,40.00,9,5,20,0.85
2013-4-15,76.0,72.5,68.0,71.0,68.4,66.0,97,87,74,0.00,40.00,7,3,12,0.16
2013-4-16,82.0,74.8,67.0,73.0,67.7,64.0,92,79,58,0.00,40.00,7,4,12,0.01
2013-4-17,82.0,75.2,66.0,70.0,66.7,64.0,95,76,62,0.00,40.00,10,6,19,0.00
2013-4-18,80.0,76.1,72.0,68.0,65.8,64.0,77,71,59,0.00,40.00,11,8,20,0.00
2013-4-19,80.0,75.0,69.0,72.0,67.0,63.0,84,76,68,0.00,40.00,11,7,21,0.02
2013-4-20,83.0,75.6,68.0,70.0,67.0,63.0,88,76,59,0.00,40.00,8,4,14,0.01
2013-4-21,82.0,74.3,68.0,71.0,68.3,64.0,90,82,64,0.00,40.00,7,3,17,0.41
2013-4-22,81.0,74.3,69.0,73.0,69.0,66.0,94,84,71,0.00,40.00,9,4,19,0.84
2013-4-23,83.0,76.1,69.0,74.0,68.9,65.0,93,79,61,0.00,40.00,8,4,16,0.06
2013-4-24,84.0,75.3,70.0,74.0,70.0,67.0,93,84,65,0.00,40.00,8,4,15,0.30
2013-4-25,82.0,76.3,70.0,71.0,66.7,63.0,89,73,59,0.00,40.00,10,6,17,0.02
2013-4-26,80.0,76.0,71.0,67.0,64.4,62.0,78,68,56,0.00,40.00,12,7,17,0.00
2013-4-27,82.0,74.8,66.0,70.0,65.1,61.0,85,73,61,0.00,40.00,11,4,17,0.00
2013-4-28,81.0,75.3,69.0,73.0,67.3,64.0,86,77,65,0.00,40.00,10,4,16,0.00
2013-4-29,81.0,76.6,72.0,74.0,70.2,67.0,87,81,71,0.00,40.00,10,5,18,0.01
2013-4-30,83.0,76.0,70.0,75.0,69.7,65.0,92,81,67,0.00,40.00,9,5,16,0.01
2013-5-1,83.0,76.1,68.0,75.0,67.6,65.0,95,76,58,0.00,40.00,10,5,17,0.00
2013-5-2,82.0,75.7,69.0,74.0,68.1,61.0,92,78,65,0.00,40.00,12,6,17,0.00
2013-5-3,83.0,74.8,67.0,74.0,66.4,61.0,90,76,62,0.00,40.00,9,4,14,0.00
2013-5-4,80.0,74.8,69.0,73.0,67.7,64.0,88,79,68,0.00,40.00,8,4,14,0.01
2013-5-5,75.0,72.3,69.0,75.0,71.2,69.0,100,96,87,0.00,40.00,9,5,17,0.49
2013-5-6,83.0,74.8,69.0,74.0,66.6,57.0,100,78,47,0.00,40.00,9,6,19,0.12
2013-5-7,83.0,75.6,69.0,72.0,64.9,60.0,88,70,53,0.00,40.00,8,5,16,0.00
2013-5-8,83.0,74.1,66.0,70.0,63.6,60.0,84,71,56,0.00,40.00,8,4,15,0.00
2013-5-9,84.0,75.9,68.0,72.0,65.9,61.0,87,72,55,0.00,40.00,10,5,18,0.00
2013-5-10,83.0,75.8,73.0,71.0,65.1,-99.9,82,74,64,0.00,40.00,7,6,14,0.00
2013-5-11,82.0,75.3,72.0,70.0,65.4,-99.9,83,74,62,0.00,40.00,10,8,21,0.00
2013-5-12,79.0,75.2,72.0,69.0,66.9,65.0,81,75,70,0.00,40.00,11,8,19,0.00
2013-5-13,80.0,76.2,72.0,74.0,69.8,67.0,94,81,72,0.00,40.00,13,8,20,0.04
2013-5-14,82.0,78.0,74.0,72.0,68.7,66.0,85,74,64,0.00,40.00,12,8,20,0.01
2013-5-15,82.0,77.9,74.0,70.0,67.5,66.0,79,70,60,0.00,40.00,11,7,18,0.00
2013-5-16,81.0,74.1,73.0,70.0,49.9,-99.9,81,71,59,0.00,40.00,14,9,22,0.00
2013-5-17,82.0,76.4,73.0,68.0,61.1,-99.9,76,67,56,0.00,40.00,12,7,19,0.00
2013-5-18,81.0,75.0,69.0,72.0,66.3,62.0,84,75,67,0.00,40.00,8,4,16,0.00
2013-5-19,83.0,74.8,68.0,72.0,66.1,63.0,87,75,59,0.00,40.00,9,6,17,0.02
2013-5-20,83.0,75.1,69.0,68.0,61.8,54.0,81,65,43,0.00,40.00,8,6,19,0.02
2013-5-21,82.0,74.0,66.0,70.0,61.4,56.0,82,66,49,0.00,40.00,8,4,15,0.00
2013-5-22,85.0,76.5,69.0,72.0,66.8,62.0,81,72,59,0.00,40.00,9,5,16,0.00
2013-5-23,89.0,79.0,71.0,73.0,68.2,65.0,84,71,54,0.00,40.00,7,5,13,0.00
2013-5-24,83.0,78.2,72.0,72.0,67.7,65.0,81,71,61,0.00,40.00,13,7,18,0.00
2013-5-25,81.0,77.6,72.0,70.0,67.3,62.0,77,71,66,0.00,40.00,13,8,23,0.00
2013-5-26,82.0,77.8,73.0,68.0,66.5,65.0,77,69,59,0.00,40.00,13,8,20,0.00
2013-5-27,82.0,77.8,74.0,69.0,65.9,64.0,76,67,58,0.00,40.00,13,8,20,0.00
2013-5-28,83.0,75.7,71.0,73.0,67.9,65.0,86,77,68,0.00,40.00,8,5,20,0.29
2013-5-29,83.0,76.1,70.0,77.0,70.2,67.0,94,82,69,0.00,40.00,9,5,15,0.03
2013-5-30,85.0,76.9,69.0,76.0,69.5,65.0,94,79,61,0.00,40.00,12,5,18,0.00
2013-5-31,82.0,77.7,72.0,75.0,70.4,66.0,89,78,71,0.00,40.00,12,6,19,0.00
2013-6-1,82.0,78.3,73.0,72.0,69.6,67.0,82,75,65,0.00,40.00,13,7,20,0.00
2013-6-2,81.0,78.2,75.0,73.0,70.3,66.0,87,77,69,0.00,40.00,15,8,22,0.00
2013-6-3,82.0,78.3,76.0,68.0,66.0,64.0,71,66,60,0.00,40.00,13,10,24,0.00
2013-6-4,82.0,78.3,75.0,68.0,66.8,65.0,74,68,61,0.00,40.00,13,9,21,0.00
2013-6-5,82.0,77.7,75.0,68.0,66.2,64.0,75,68,60,0.00,40.00,12,8,20,0.00
2013-6-6,82.0,77.9,75.0,66.0,64.5,63.0,69,64,56,0.00,40.00,12,9,22,0.00
2013-6-7,80.0,77.3,75.0,67.0,65.4,64.0,72,67,62,0.00,40.00,13,9,23,0.00
2013-6-8,82.0,77.8,74.0,68.0,65.8,64.0,74,67,59,0.00,40.00,12,9,22,0.00
2013-6-9,82.0,78.2,75.0,69.0,66.4,65.0,74,68,59,0.00,40.00,12,8,20,0.00
2013-6-10,83.0,78.2,74.0,69.0,66.7,65.0,74,68,60,0.00,40.00,13,8,20,0.00
2013-6-11,83.0,78.3,74.0,70.0,67.3,66.0,76,69,60,0.00,40.00,11,7,18,0.00
2013-6-12,83.0,78.1,75.0,70.0,67.9,67.0,79,71,60,0.00,40.00,13,8,25,0.00
2013-6-13,81.0,77.6,75.0,70.0,68.0,67.0,80,73,65,0.00,40.00,13,10,24,0.00
2013-6-14,81.0,77.2,73.0,71.0,67.9,65.0,84,73,62,0.00,40.00,15,9,26,0.02
2013-6-15,82.0,77.0,72.0,70.0,66.6,65.0,81,71,61,0.00,40.00,13,8,21,0.00
2013-6-16,82.0,77.4,72.0,71.0,67.0,65.0,82,71,59,0.00,40.00,11,8,19,0.00
2013-6-17,83.0,77.4,73.0,73.0,67.3,65.0,81,71,62,0.00,40.00,11,7,19,0.00
2013-6-18,83.0,78.1,74.0,72.0,67.9,66.0,82,72,60,0.00,40.00,12,8,21,0.00
2013-6-19,83.0,78.1,72.0,71.0,67.0,64.0,78,69,59,0.00,40.00,15,7,21,0.00